Tracking 21076 objects as of 10-Aug-2020
HD Live streaming from Space Station
objects crossing your sky now
Track the most recent launched group of Starlink satellites

FENGYUN 1C DEB

Track FENGYUN 1C DEB now!
10-day predictions


NORAD ID: 31852
Int'l Code: 1999-025CJS
Perigee: 512.9 km
Apogee: 1,153.2 km
Inclination: 98.8 °
Period: 101.4 minutes
Semi major axis: 7204 km
RCS: 0.0137 m2 (small)
Launch date: May 10, 1999
Source: People's Republic of China (PRC)
Launch site: Taiyaun Space Center, China (TSC)

Note: This is SATELLITE DEBRIS
aabbcc
Your satellite tracking list
Your tracking list is empty




NASA's NSSDC Master Catalog

Two Line Element Set (TLE):
1 31852U 99025CJS 20223.29366277  .00002615  00000-0  46041-3 0  9997
2 31852  98.7521  61.0120 0444427 153.3991 209.0755 14.19836748669324
Source of the keplerian elements: AFSPC